Regional Weather Roundup
Issued by NWS New Orleans/Baton Rouge, LA

Home | Current Version | Previous Version | Text Only | Print | Product List | Glossary On
Versions: 1 2 3 4 5 6 7 8 9 10 11 12 13 14 15 16 17 18 19 20 21 22 23 24 25 26 27 28 29 30 31 32 33 34 35 36 37 38 39 40 41 42 43 44 45 46 47 48 49 50
764
ASUS44 KLIX 261010
RWRLIX
NEW ORLEANS REGIONAL WEATHER ROUNDUP
NATIONAL WEATHER SERVICE NEW ORLEANS LA
500 AM CDT SAT JUL 26 2014

NOTE: "FAIR" INDICATES FEW OR NO CLOUDS BELOW 12,000 FEET WITH NO
      SIGNIFICANT WEATHER AND/OR OBSTRUCTIONS TO VISIBILITY.
      SKY/WX - SKY CONDITION AND SIGNIFICANT WEATHER.
      TMP - AIR TEMPERATURE.     DP    - DEWPOINT TEMPERATURE.
      RH  - RELATIVE HUMIDITY.   PRES  - PRESSURE.
      HI  - HEAT INDEX.          WCI   - WIND CHILL INDEX.

*  THESE STATIONS ARE NOT NWS OR FAA STATIONS AND ARE NOT UNDER
   NWS QUALITY CONTROL.

LAZ038-040-048-061>063-065>067-069-261100-
SOUTHEAST LOUISIANA

CITY           SKY/WX    TMP DP  RH WIND       PRES   REMARKS
N.O. AUDUBON   NOT AVBL
N.O. INTL ARPT PTCLDY    78  75  90 SW5       30.02R
N.O. LAKEFRONT PTCLDY    81  76  84 W7        30.03R
N.O. DOWNTOWN*   N/A     81  72  74 CALM      30.02S
SLIDELL        CLEAR     76  73  91 CALM      30.01R
BATON ROUGE    PTCLDY    78  74  87 SW6       30.02R
BOOTHVILLE     CLEAR     82  76  81 W7        30.03R
BELLE CHASSE   CLEAR     76  72  87 CALM      30.01R
BOGALUSA*        N/A     76  73  89 CALM      30.03R
GALLIANO*      NOT AVBL
NEW ROADS*       N/A     75  74  97 CALM      30.01S FOG
GONZALES*        N/A     76  76 100 CALM      30.02R
HAMMOND*       CLEAR     77  73  88 CALM      30.03R
HOUMA*         PTCLDY    76  73  90 CALM      30.02R
PORT FOURCHON* MOSUNNY   82  75  78 SW8       30.04R

$$

MSZ070-080>082-261100-
SOUTHERN MISSISSIPPI

CITY           SKY/WX    TMP DP  RH WIND       PRES   REMARKS
MCCOMB         CLEAR     75  73  93 CALM      30.02S FOG
GULFPORT       CLEAR     80  75  84 CALM      30.01R
BILOXI         CLEAR     79  76  92 VRB2      30.01R
PASCAGOULA     PTCLDY    75  74  96 CALM      30.01R FOG

$$

COASTAL OBSERVATIONS
LAKE AND NEARSHORE STATIONS

STATION/POSITION TIME  TEMP    WIND        PRES    WAVE
                       AIR SEA DIR/SP/G            HT/PER
                 (UTC) (F)     (DEG/KT/KT) (MB)    (FT/S)
PASCAGOULA       1000   82     270/  7/ 10 1015.8
WAVELAND YACHT   1000   78     260/  2/  4 1015.7
GRAND ISLE       1000   82 86  230/  4/  6 1017.2
SOUTHWEST PASS   1000   83 84  260/ 13/ 16 1016.9
NEW CANAL        1000   80 83  240/  4/  5 1016.9
SHELL BEACH      1000   80 81  250/  5/  6 1016.2

OFFSHORE STATIONS

STATION/POSITION TIME  TEMP    WIND        PRES    WAVE
                       AIR SEA DIR/SP/G            HT/PER
                 (UTC) (F)     (DEG/KT/KT) (MB)    (FT/S)
64 S DAUPHIN ISL 0857   83 85  270/ 12/ 14 1016.9

$$




USA.gov is the U.S. government's official web portal to all federal, state and local government web resources and services.